Vertical_Velocity
3 -8 -2 -1 -9 -7 -7 7 -2 -1 -1 0 -4 -1 -4 -0 2 -1 -3 -2 -0 0 -1 1 1 1 0 -1 0 -0 -2 0 0 -0 -1 -1 -0 -0 -1 -0 1 -1 -0 -1 -2 -2 -1 -2 -0 -3 -3 -2 -2 -2
-3 -5 -6 -6 -4 -5 -2 -3 1 -1 -4 -4 -3 -1 -2 -0 2 -0 -2 -0 -0 -0 -2 -0 2 1 1 0 -1 0 -2 -2 -1 -1 -1 -2 -2 -1 0 0 -1 0 -1 -1 -2 -1 -1 -1 -1 -0 -0 0 0 -2
-4 -3 0 -8 -3 -4 -6 -1 -0 2 -3 -3 -1 -3 -2 0 2 0 -2 -0 1 -0 1 -2 -0 1 -0 -0 -1 0 -2 -1 -1 -1 -1 -2 -1 -1 0 -1 -1 -1 -2 -0 -1 -4 -1 -2 -1 -1 -1 -1 -1 1
5 3 -14 1 -7 -6 -7 -4 -4 -1 1 1 -5 -1 -0 1 -0 1 -1 0 2 2 -1 1 -1 -1 -0 -1 -1 -2 -1 -1 -1 -1 -1 -0 -0 0 0 -0 -1 -2 -3 -2 -4 -2 -0 -1 -0 0 0 -1 -0 0
-3 -6 3 -4 -3 -11 -7 -5 -6 -3 -1 -2 -2 0 -1 3 -1 -0 -1 -2 1 2 -1 -1 1 1 0 0 -1 -1 -1 -0 -1 -1 -1 0 -0 -1 -1 -2 -2 -1 -1 -2 -1 -1 -1 -3 -3 -1 -1 -2 -3 -2
-6 -8 -15 -9 -1 4 -9 -5 -3 -3 -3 -1 -4 0 -5 -3 1 -0 -3 -1 2 -1 -1 -2 0 1 -0 -0 -1 -1 -0 0 -1 -1 -1 -1 -1 -1 -1 -1 -0 -0 -0 -1 -1 0 -1 -1 1 1 1 -1 0 -2
-5 -5 -6 -9 -7 6 -0 -5 -4 -5 -3 -3 -3 -0 -1 -2 -4 -3 -3 0 0 0 -0 -1 -2 1 0 1 1 -0 -0 0 -1 -1 -1 -1 -1 -1 -2 -1 -0 -2 -1 -1 -2 -0 -3 -1 -1 -2 -0 1 -1 -2
-6 -9 -10 -6 -4 -5 7 -2 -4 -5 0 1 1 -2 -1 -2 -2 -3 -2 -0 1 0 -1 -1 -1 -0 2 0 -0 -0 0 0 -0 -1 -0 -0 -1 -1 -1 -1 -1 -2 -1 -2 -1 -1 -1 -1 -1 -0 -1 1 -3 -5
-3 -6 -6 -14 -3 -6 5 -0 1 -3 -3 2 -1 -1 -1 -1 -2 -3 -1 -1 -3 -1 -1 -1 -0 -2 0 0 1 1 -0 -1 -0 -1 -0 -2 -3 -1 -1 -1 -0 -1 -1 -1 -0 -1 -2 -1 -1 -2 -3 -4 -0 -1
-2 2 3 0 -2 -6 6 0 2 -1 -2 -0 -1 -1 0 2 -2 0 -3 -1 0 -4 -2 -0 1 -0 0 0 -1 0 -1 -2 -1 -2 -2 -1 -2 -1 -1 -2 -1 -1 -1 -2 -2 -1 -2 -2 1 -2 -2 0 -1 -2
-8 -10 -2 -10 0 -2 2 4 -3 5 1 -2 3 2 -2 -2 -3 -2 -5 -1 -0 1 -0 -0 -1 0 -0 -1 1 1 -1 -1 -1 -3 -2 -0 -1 -1 -1 -1 -1 -1 -1 -2 -1 1 1 3 2 1 0 -3 -2 -3
-2 -1 2 -7 -2 2 -3 8 2 5 1 -1 3 -2 -1 -2 -3 -5 -3 -3 -1 -2 3 1 -1 -2 0 1 2 -1 -1 -1 -2 -3 -1 1 -1 0 0 0 0 -1 -1 -0 1 -1 -0 1 1 2 1 2 0 5
-3 -3 -1 -2 -3 2 -0 7 6 -1 2 3 -2 -2 1 -3 -10 -4 -1 9 8 7 1 -0 -0 -0 1 2 2 -0 -1 -0 -3 0 -2 -2 -0 0 -0 -0 -1 -2 -1 0 -1 1 1 2 1 -1 1 -5 -1 4
-4 -6 -2 3 -1 1 0 4 7 -1 1 -1 -4 -6 -9 -6 -3 7 2 -2 1 -5 -2 -1 -0 1 1 0 -1 1 -1 -1 0 -1 -2 -0 -1 -1 -2 -1 -1 -0 2 1 2 1 -1 2 3 -1 -7 -4 -1 1
-5 1 -7 2 -0 3 2 -1 8 -1 -1 -2 -2 -11 -1 1 8 -0 1 2 0 0 -0 -2 -1 0 -2 -1 -0 0 -1 -0 2 0 1 0 -1 -1 -1 -0 -0 -1 -1 -1 -0 2 2 0 1 3 -3 -1 1 2
-1 1 3 4 0 2 -2 1 3 3 -1 -2 -3 -6 8 5 8 3 1 1 1 1 -1 -1 -2 -1 0 -1 2 -1 0 1 1 -0 1 -0 -1 -1 -1 -0 -0 0 0 2 1 0 1 -1 -0 1 2 -1 1 -2
4 4 8 -2 -2 -2 2 1 1 4 -1 -16 1 -1 7 6 -0 3 1 1 -1 -0 0 -1 -1 0 1 -0 2 1 -0 -0 -0 0 -0 0 -0 -1 -1 -1 1 -0 -0 -0 2 -1 1 -0 -1 -3 2 1 2 2
-4 15 4 3 -1 -5 5 1 -1 -2 -15 -2 4 7 3 5 -0 5 2 -1 2 -0 -0 1 3 -1 1 2 0 -1 -0 -0 0 0 1 -1 -2 -1 -1 -0 -1 -0 1 -1 -1 2 1 1 -1 -2 1 2 4 4
-5 -4 18 3 2 -4 -8 -2 -2 -10 -4 10 10 5 2 4 2 5 0 0 -1 -1 -1 -1 -1 1 3 1 0 1 0 1 1 1 0 -2 -1 -0 0 0 2 2 0 1 2 4 1 -3 -4 -2 -2 -3 -1 -1
-6 1 4 10 -3 -0 -4 -15 2 1 -0 5 15 12 3 4 4 -0 -1 1 0 -2 -2 -0 2 3 -0 -0 1 1 1 0 -1 0 0 -1 -0 -0 1 0 -1 0 0 0 -6 -5 -2 -2 -4 -0 -2 -3 -3 0
-8 -0 0 7 3 -3 -4 -7 0 -6 2 7 12 9 5 5 2 1 3 0 -1 2 3 3 2 0 0 0 0 0 1 -0 0 -1 -1 2 0 -1 1 0 -1 -3 -1 1 4 1 -2 -4 -3 -2 -0 -2 0 -0
-0 -1 9 3 3 0 -5 -3 -7 -1 4 8 10 11 7 6 3 1 0 -3 3 4 2 0 0 2 1 -0 0 1 -0 -1 -1 -2 -2 -3 -3 -3 -2 -1 -5 -7 -5 -3 -2 -1 -3 -3 -1 0 1 1 -1 1
-2 0 7 3 -1 -1 -10 -1 -7 2 1 2 10 8 4 4 3 -1 -5 1 4 0 -1 2 2 3 0 1 1 0 -0 0 -0 -1 -2 -2 1 1 2 3 2 2 -1 -4 -2 -0 -2 -3 -1 -1 -4 0 -2 -3
12 7 11 2 -2 -9 -3 -7 -2 0 -1 5 7 3 7 4 5 -5 0 2 4 1 1 0 3 2 1 1 1 -0 0 2 2 -2 -1 -1 -2 -1 1 0 -2 -3 -4 -1 -1 -1 -4 -3 -4 -5 -4 -3 -1 -3
13 3 -1 -5 -8 -3 -7 -1 -4 -3 -6 -1 2 2 6 3 -2 2 4 2 -0 1 1 3 1 2 1 0 0 -0 1 1 0 -0 2 -0 -2 -2 -4 -0 1 -1 -3 -5 -8 -8 -6 -3 -4 -4 -0 -4 -3 -4
7 -7 2 6 -1 -2 1 3 1 1 5 4 0 1 5 2 -3 -2 9 6 5 4 3 1 2 1 0 0 0 0 0 -1 0 1 -0 -1 -0 -2 -3 -5 -9 -5 -5 -5 -3 -4 -3 -2 -2 -1 -1 -5 -4 -2
-2 -12 -9 -1 -5 6 6 6 12 5 9 -3 3 13 6 -7 -6 4 7 0 3 1 3 2 1 1 -0 -0 -0 -0 -0 -0 0 -0 -2 -2 -1 -1 -3 -3 -3 -2 -7 -9 -4 -5 0 -0 -2 -3 -2 -1 -3 -3
-5 -11 6 6 1 8 8 8 4 -5 -3 -4 3 -7 -7 2 5 11 13 3 3 6 2 2 1 0 -0 -2 -1 -0 -2 -1 1 -0 -1 -2 -2 -2 -0 2 0 -2 -0 -1 -6 -3 -3 -1 1 1 -2 -2 -3 -4
-5 4 5 -2 4 10 1 -7 -6 -3 6 7 1 2 6 7 7 7 8 5 4 2 1 2 1 0 -1 -1 0 -1 -1 -0 -1 -1 -0 -1 -2 -1 -0 -3 -3 -4 -4 -3 -1 0 -1 -1 -2 -0 -1 -2 -3 -3
6 3 1 2 5 -2 -5 7 9 11 7 3 3 4 3 5 3 5 6 3 2 -1 1 2 1 -0 -0 -1 -1 -0 -0 -1 -1 -1 -2 -2 -3 -3 -4 -5 -5 -4 -6 -5 -4 -3 -1 0 0 1 -1 -2 -2 -2
-3 0 -0 0 -1 -0 8 8 2 8 5 0 0 1 2 3 4 4 5 4 1 2 1 0 0 -0 -0 -1 -0 -0 -2 -1 -1 -2 -3 -3 -4 -4 -4 -5 -5 -6 -4 -3 -2 -1 0 -1 -1 -1 -2 -2 -2 -3
-3 -5 -1 -1 4 4 -0 -2 1 4 -0 -6 -5 0 0 3 4 4 2 1 1 1 1 -0 -1 -0 0 0 -1 -2 -1 -1 -1 -2 -2 -3 -3 -3 -3 -4 -5 -4 -3 -5 -0 -0 -2 -4 -2 0 -0 -1 -1 -1
1 4 9 9 -0 0 5 7 0 -2 -2 -1 1 3 5 2 -1 3 4 2 0 1 1 -0 -0 0 1 -0 -1 -1 -0 -1 -2 -2 -2 -2 -3 -3 -3 -5 -5 -5 -2 -3 -1 1 -0 -2 -2 -1 0 1 1 0
Height
5605 5596 5587 5585 5582 5579 5575 5574 5573 5571 5573 5575 5575 5575 5576 5576 5576 5577 5579 5580 5585 5588 5592 5595 5598 5601 5604 5606 5608 5611 5612 5613 5614 5615 5616 5618 5618 5619 5619 5619 5619 5619 5619 5618 5618 5617 5616 5615 5613 5612 5611 5608 5606 5604
5604 5597 5588 5586 5587 5584 5584 5582 5581 5580 5580 5580 5581 5581 5581 5581 5581 5582 5584 5587 5590 5594 5596 5599 5601 5605 5607 5609 5611 5613 5615 5615 5616 5617 5618 5618 5619 5619 5620 5620 5620 5619 5619 5618 5617 5615 5613 5612 5610 5607 5605 5603 5600 5596
5602 5594 5586 5584 5585 5586 5587 5585 5585 5585 5584 5585 5586 5585 5585 5585 5586 5587 5587 5590 5594 5597 5600 5602 5604 5607 5610 5612 5613 5615 5616 5617 5617 5618 5619 5619 5620 5620 5620 5620 5618 5617 5616 5614 5613 5610 5609 5607 5605 5602 5599 5596 5592 5590
5602 5594 5589 5579 5583 5584 5586 5586 5586 5587 5588 5589 5589 5588 5587 5588 5588 5589 5590 5591 5596 5599 5602 5605 5606 5609 5610 5613 5614 5616 5617 5617 5618 5618 5618 5619 5618 5618 5617 5617 5616 5615 5614 5612 5610 5607 5604 5602 5599 5596 5592 5589 5586 5582
5599 5594 5586 5583 5580 5582 5582 5585 5585 5586 5588 5589 5590 5589 5588 5589 5589 5589 5591 5592 5596 5601 5603 5606 5608 5610 5611 5613 5614 5615 5616 5617 5617 5617 5618 5617 5617 5617 5615 5614 5613 5612 5610 5608 5605 5603 5600 5596 5592 5588 5585 5581 5576 5572
5595 5589 5583 5577 5574 5574 5577 5580 5582 5584 5585 5586 5588 5588 5587 5588 5588 5589 5591 5594 5596 5599 5603 5605 5608 5609 5611 5612 5613 5614 5615 5615 5616 5616 5616 5615 5615 5614 5613 5611 5609 5607 5605 5603 5600 5597 5593 5589 5586 5581 5576 5571 5565 5560
5587 5583 5577 5568 5564 5565 5568 5573 5577 5580 5582 5585 5587 5588 5586 5586 5587 5588 5591 5594 5596 5599 5601 5604 5606 5609 5610 5611 5612 5613 5614 5614 5614 5614 5613 5613 5611 5611 5609 5608 5605 5603 5600 5597 5593 5590 5586 5582 5577 5572 5565 5559 5553 5546
5577 5573 5569 5563 5557 5555 5558 5564 5569 5574 5578 5581 5584 5586 5586 5585 5585 5587 5590 5593 5596 5597 5600 5602 5605 5608 5609 5610 5611 5612 5612 5612 5611 5611 5611 5610 5608 5607 5605 5603 5601 5598 5594 5591 5587 5583 5578 5573 5567 5560 5553 5546 5539 5531
5567 5564 5559 5554 5549 5546 5549 5553 5561 5567 5572 5576 5579 5581 5584 5584 5584 5585 5588 5591 5594 5597 5597 5600 5603 5605 5607 5608 5609 5610 5610 5609 5610 5609 5609 5608 5605 5604 5601 5598 5595 5592 5588 5584 5579 5574 5569 5562 5555 5548 5540 5532 5525 5515
5558 5554 5549 5544 5542 5540 5541 5543 5549 5557 5565 5569 5573 5576 5579 5581 5581 5582 5585 5587 5589 5593 5596 5597 5599 5602 5605 5605 5606 5607 5607 5607 5607 5607 5605 5604 5601 5599 5596 5593 5589 5585 5581 5576 5570 5564 5558 5551 5544 5535 5527 5518 5509 5499
5546 5543 5540 5536 5533 5533 5533 5535 5539 5548 5556 5563 5566 5569 5572 5574 5577 5578 5580 5583 5585 5589 5592 5595 5597 5599 5601 5603 5603 5604 5603 5604 5604 5604 5602 5600 5597 5594 5590 5587 5583 5578 5573 5567 5561 5555 5548 5539 5532 5523 5512 5502 5491 5479
5536 5532 5528 5526 5524 5524 5525 5527 5532 5539 5545 5554 5559 5561 5564 5568 5571 5573 5575 5579 5582 5584 5588 5592 5593 5596 5597 5598 5599 5600 5600 5600 5601 5599 5596 5594 5591 5588 5585 5580 5576 5571 5565 5559 5552 5545 5537 5528 5520 5510 5499 5487 5475 5461
5524 5519 5515 5515 5515 5515 5517 5518 5524 5527 5535 5543 5549 5553 5557 5561 5564 5566 5570 5575 5579 5583 5585 5588 5590 5592 5593 5595 5596 5596 5596 5596 5595 5593 5591 5589 5585 5582 5578 5573 5568 5563 5557 5550 5543 5536 5526 5516 5506 5496 5483 5470 5456 5443
5511 5506 5505 5504 5505 5507 5507 5509 5513 5518 5526 5533 5540 5546 5550 5554 5558 5563 5567 5571 5575 5577 5579 5582 5585 5588 5589 5590 5590 5590 5591 5590 5589 5588 5585 5583 5579 5575 5571 5566 5561 5555 5548 5541 5533 5524 5514 5504 5493 5480 5466 5452 5439 5428
5499 5494 5495 5494 5495 5497 5497 5500 5501 5507 5515 5522 5530 5537 5545 5549 5555 5557 5561 5565 5568 5571 5573 5576 5579 5583 5583 5584 5585 5586 5585 5584 5583 5582 5580 5576 5572 5568 5564 5558 5553 5546 5539 5532 5523 5513 5503 5492 5480 5467 5450 5435 5423 5414
5483 5483 5485 5483 5484 5487 5487 5491 5493 5496 5504 5511 5520 5531 5538 5544 5549 5551 5553 5556 5561 5565 5568 5570 5572 5575 5577 5578 5581 5580 5579 5578 5577 5575 5572 5569 5565 5561 5556 5551 5545 5538 5531 5522 5512 5502 5492 5480 5467 5453 5438 5422 5412 5403
5469 5474 5471 5471 5473 5475 5478 5481 5483 5486 5492 5499 5513 5522 5531 5536 5540 5544 5546 5549 5553 5558 5562 5564 5567 5569 5572 5572 5575 5575 5573 5573 5571 5569 5565 5561 5558 5554 5549 5543 5537 5530 5522 5512 5503 5492 5480 5468 5453 5439 5427 5413 5402 5392
5462 5462 5459 5461 5460 5460 5466 5469 5469 5471 5480 5493 5504 5514 5521 5527 5532 5537 5539 5542 5547 5551 5554 5558 5561 5563 5565 5567 5568 5568 5567 5566 5565 5562 5559 5555 5551 5546 5541 5535 5529 5521 5512 5503 5493 5482 5469 5455 5441 5428 5413 5402 5392 5380
5447 5448 5452 5450 5449 5449 5453 5456 5456 5463 5476 5488 5497 5505 5511 5518 5525 5529 5532 5535 5539 5543 5547 5550 5553 5556 5559 5561 5562 5562 5561 5560 5558 5556 5552 5549 5544 5539 5534 5528 5520 5512 5502 5493 5482 5470 5457 5442 5428 5415 5402 5392 5382 5369
5431 5436 5439 5441 5440 5440 5441 5444 5449 5459 5467 5479 5489 5495 5502 5509 5515 5520 5524 5528 5532 5535 5539 5543 5548 5552 5553 5555 5556 5555 5554 5553 5551 5548 5546 5542 5537 5531 5526 5519 5511 5502 5492 5482 5470 5459 5445 5429 5415 5400 5389 5379 5369 5357
5416 5422 5427 5431 5430 5432 5435 5436 5441 5450 5461 5469 5478 5486 5494 5501 5507 5512 5517 5520 5524 5530 5535 5540 5543 5545 5548 5549 5549 5548 5547 5546 5544 5541 5538 5534 5529 5523 5517 5509 5501 5493 5483 5473 5461 5448 5433 5419 5405 5393 5382 5370 5358 5344
5404 5410 5415 5417 5420 5422 5425 5429 5435 5443 5453 5461 5469 5478 5485 5493 5499 5504 5509 5513 5519 5525 5530 5533 5535 5538 5541 5542 5541 5541 5540 5538 5536 5534 5530 5525 5520 5515 5509 5501 5492 5483 5473 5462 5449 5436 5422 5410 5396 5385 5374 5362 5348 5335
5391 5397 5401 5404 5407 5411 5415 5420 5425 5434 5442 5452 5462 5469 5476 5484 5491 5495 5500 5507 5513 5518 5522 5525 5529 5533 5534 5534 5534 5534 5533 5531 5528 5525 5522 5518 5513 5508 5501 5493 5484 5474 5462 5451 5439 5426 5412 5400 5388 5377 5366 5354 5341 5327
5381 5384 5386 5388 5393 5397 5402 5405 5414 5423 5432 5444 5454 5462 5468 5476 5483 5487 5495 5501 5507 5512 5516 5519 5523 5525 5526 5527 5527 5527 5525 5523 5521 5517 5514 5510 5505 5499 5492 5484 5473 5464 5453 5441 5429 5416 5403 5391 5381 5370 5359 5348 5335 5322
5368 5367 5370 5372 5377 5385 5389 5395 5402 5414 5426 5439 5450 5455 5461 5468 5474 5481 5489 5496 5500 5505 5509 5514 5517 5518 5519 5520 5521 5520 5518 5516 5514 5511 5507 5502 5497 5489 5482 5473 5465 5454 5442 5430 5418 5405 5394 5383 5374 5365 5355 5343 5331 5319
5350 5351 5358 5365 5369 5373 5378 5386 5399 5413 5426 5433 5442 5449 5455 5461 5468 5475 5484 5490 5494 5499 5503 5506 5509 5510 5512 5513 5513 5512 5510 5509 5506 5503 5499 5494 5487 5480 5472 5464 5454 5444 5433 5421 5409 5397 5386 5378 5369 5360 5351 5341 5330 5319
5335 5341 5351 5356 5360 5365 5372 5386 5399 5410 5420 5428 5437 5443 5447 5454 5460 5469 5477 5481 5486 5491 5496 5500 5502 5503 5505 5506 5505 5504 5503 5501 5499 5495 5491 5486 5479 5472 5464 5455 5445 5435 5423 5411 5401 5390 5381 5373 5365 5357 5348 5340 5330 5320
5329 5339 5346 5352 5353 5360 5371 5383 5393 5401 5412 5421 5429 5434 5440 5447 5454 5463 5470 5474 5480 5486 5489 5492 5495 5497 5498 5498 5498 5497 5496 5494 5491 5488 5483 5477 5470 5464 5456 5447 5438 5427 5415 5403 5393 5384 5377 5369 5362 5354 5346 5338 5329 5320
5328 5335 5340 5343 5350 5360 5369 5379 5390 5402 5414 5420 5425 5430 5436 5442 5450 5456 5464 5470 5474 5477 5481 5485 5488 5490 5491 5491 5490 5490 5488 5486 5483 5479 5474 5468 5462 5456 5447 5438 5429 5418 5408 5398 5388 5379 5371 5364 5357 5350 5343 5336 5328 5320
5326 5330 5334 5340 5347 5357 5368 5380 5391 5400 5408 5414 5419 5424 5430 5437 5444 5451 5457 5462 5466 5471 5475 5478 5481 5483 5483 5483 5483 5482 5480 5478 5474 5470 5465 5459 5453 5445 5437 5428 5419 5409 5399 5389 5380 5374 5367 5360 5353 5346 5339 5333 5326 5319
5321 5325 5331 5338 5347 5357 5367 5377 5385 5395 5402 5408 5412 5418 5426 5433 5439 5445 5450 5456 5461 5465 5469 5472 5474 5475 5475 5475 5475 5474 5472 5469 5465 5461 5456 5450 5443 5436 5428 5419 5409 5400 5390 5381 5374 5368 5362 5355 5348 5341 5335 5328 5322 5315
5317 5322 5329 5337 5347 5357 5365 5374 5383 5392 5399 5403 5408 5414 5421 5428 5434 5440 5445 5450 5455 5459 5463 5465 5466 5467 5468 5468 5467 5466 5464 5461 5457 5452 5447 5442 5435 5427 5418 5410 5401 5392 5383 5375 5369 5363 5357 5350 5343 5336 5330 5324 5317 5311
5313 5321 5328 5337 5347 5356 5366 5375 5382 5389 5395 5399 5404 5411 5416 5422 5428 5434 5440 5446 5450 5453 5456 5458 5459 5460 5461 5461 5460 5458 5456 5453 5449 5444 5439 5432 5425 5418 5410 5401 5393 5384 5376 5370 5364 5357 5351 5344 5337 5331 5325 5319 5312 5305